Imperial, CA

9:20 PM PDT on June 28, 2017 (GMT -0700)
Imperial County

Weather History for KIPL - May, 2013

Change the Weather History Date:

Saturday, May 25, 2013

  Actual Average Record
Temperature  
Mean Temperature 78 °F -  
Max Temperature 96 °F 96 °F 110 °F (1951)
Min Temperature 64 °F 64 °F 52 °F (1980)
Cooling Degree Days 14    
Growing Degree Days 28 (Base 50)    
Moisture  
Dew Point 30 °F    
Average Humidity 17    
Maximum Humidity 35    
Minimum Humidity 8    
Precipitation  
Precipitation 0.00 in - - ()
Sea Level Pressure  
Sea Level Pressure 29.81 in    
Wind  
Wind Speed 8 mph (WSW)    
Max Wind Speed 17 mph    
Max Gust Speed 24 mph    
Visibility 10 miles    
Events      
Averages and records for this station are not official NWS values.
T = Trace of Precipitation, MM = Missing Value Source: NWS Daily Summary

Daily Weather History Graph

Daily Weather History Graph

Search for Another Location

Airport or City:

Trip Planner

Search our weather history database for the weather conditions in past years. The results will help you decide how hot, cold, wet, or windy it might be!

Date:

Astronomy

May. 25, 2013 Rise Set
Actual Time 5:37 AM PDT 7:41 PM PDT
Civil Twilight 5:09 AM PDT 8:09 PM PDT
Nautical Twilight 4:35 AM PDT 8:43 PM PDT
Astronomical Twilight 3:59 AM PDT 9:19 PM PDT
Moon 8:34 PM PDT (5/25) 6:07 AM PDT (5/25)
Length of Visible Light 14h 59m
Length of Day
14h 04m
Waxing Gibbous, 99% of the Moon is Illuminated
May 25
Waxing Gibbous
May 31
Last Quarter
Jun 8
New
Jun 16
First Quarter
Jun 23
Full

Hourly Weather History & Observations

Time (PDT) Temp. Dew Point Humidity Pressure Visibility Wind Dir Wind Speed Gust Speed Precip Events Conditions
12:53 AM 72.0 °F 28.9 °F 20% 29.80 in 10.0 mi West 8.1 mph - N/A   Clear
1:53 AM 72.0 °F 23.0 °F 16% 29.79 in 10.0 mi WNW 6.9 mph - N/A   Clear
2:53 AM 68.0 °F 24.1 °F 19% 29.80 in 10.0 mi WNW 3.5 mph - N/A   Clear
3:53 AM 66.0 °F 24.1 °F 20% 29.80 in 10.0 mi West 8.1 mph - N/A   Clear
4:53 AM 66.9 °F 28.0 °F 23% 29.81 in 10.0 mi SW 5.8 mph - N/A   Clear
5:53 AM 64.9 °F 25.0 °F 22% 29.82 in 10.0 mi NNW 3.5 mph - N/A   Clear
6:53 AM 72.0 °F 27.0 °F 19% 29.83 in 10.0 mi South 4.6 mph - N/A   Clear
7:53 AM 77.0 °F 15.1 °F 10% 29.86 in 10.0 mi NW 3.5 mph - N/A   Clear
8:53 AM 79.0 °F 48.9 °F 35% 29.86 in 10.0 mi South 9.2 mph - N/A   Clear
9:53 AM 82.0 °F 35.1 °F 18% 29.87 in 10.0 mi SSW 9.2 mph - N/A   Clear
10:53 AM 84.9 °F 36.0 °F 17% 29.87 in 10.0 mi SSW 5.8 mph - N/A   Clear
11:53 AM 90.0 °F 28.0 °F 11% 29.87 in 10.0 mi South 9.2 mph - N/A   Clear
12:53 PM 89.1 °F 28.9 °F 12% 29.84 in 10.0 mi ESE 6.9 mph - N/A   Clear
1:53 PM 91.9 °F 25.0 °F 9% 29.83 in 10.0 mi SE 10.4 mph - N/A   Clear
2:53 PM 93.0 °F 24.1 °F 8% 29.81 in 10.0 mi SSE 6.9 mph - N/A   Clear
3:53 PM 93.9 °F 25.0 °F 8% 29.78 in 10.0 mi Variable 4.6 mph - N/A   Clear
4:53 PM 93.9 °F 27.0 °F 9% 29.76 in 10.0 mi SW 8.1 mph - N/A   Clear
5:53 PM 91.0 °F 37.9 °F 15% 29.75 in 10.0 mi West 15.0 mph - N/A   Clear
6:53 PM 87.1 °F 35.1 °F 16% 29.76 in 10.0 mi West 16.1 mph - 0.00 in   Clear
7:53 PM 82.0 °F 37.0 °F 20% 29.77 in 10.0 mi West 17.3 mph - N/A   Clear
8:53 PM 79.0 °F 35.1 °F 20% 29.78 in 10.0 mi West 16.1 mph 24.2 mph N/A   Clear
9:53 PM 77.0 °F 36.0 °F 23% 29.81 in 10.0 mi West 10.4 mph 21.9 mph N/A   Clear
10:53 PM 75.0 °F 28.9 °F 18% 29.82 in 10.0 mi WNW 8.1 mph - N/A   Clear
11:53 PM 72.0 °F 26.1 °F 18% 29.81 in 10.0 mi WNW 8.1 mph - N/A   Clear